Home > Weather > Kenora > Past weeks

Flag for Canada Weather for the Past 2 Weeks in Kenora, Ontario, Canada

Now
45 °F

Passing clouds.


Feels Like: 42 °F
Forecast: 32 / 54 °F
Wind: 5 mph from Northeast

Location: Kenora

Current Time: Apr 28, 2016 at 11:39:30 PM

Latest Report: Apr 28, 2016 at 10:00 PM


Visibility: 15 mi

Pressure: 30.23 "Hg

Humidity: 57%

Dew Point: 30 °F

Location of KenoraLocation

Historic Weather in Kenora — Graph

°F

Kenora Temperature Yesterday

Maximum temperature yesterday: 54 °F (at 3:00 PM)
Minimum temperature yesterday: 32 °F (at 6:00 AM)
Average temperature yesterday: 43 °F

High & Low Weather Summary for the Past Weeks

 TemperatureHumidityPressure
High68 °F (Apr 15, 2:00 PM)100% (Apr 16, 6:02 AM)30.57 "Hg (Apr 16, 6:02 AM)
Low27 °F (Apr 22, 5:00 AM)17% (Apr 27, 2:00 PM)29.87 "Hg (Apr 15, 2:00 PM)
Average43 °F60%30.15 "Hg
* Reported Apr 13 10:00 PM — Apr 28 10:00 PM, Kenora, Weather by CustomWeather, © 2016

Note: Actual official high and low records may vary slightly from our data, if they occured in-between our weather recording intervals... More about our weather records

Advertising

Kenora Weather History for the Previous 24 Hours

Scroll right to see more
 ConditionsComfort  
Time TempWeatherWind HumidityBarometerVisibility
10:00 PM
Thu, Apr 28
45 °FPassing clouds.5 mph57%30.23 "Hg15 mi
9:00 PM46 °FPassing clouds.2 mph53%30.23 "Hg15 mi
8:00 PM50 °FPartly sunny.7 mph43%30.22 "Hg15 mi
7:00 PM52 °FPartly sunny.12 mph41%30.21 "Hg15 mi
6:00 PM54 °FPartly sunny.13 mph30%30.21 "Hg15 mi
5:00 PM52 °FPartly sunny.12 mph30%30.20 "Hg15 mi
4:00 PM54 °FPartly sunny.12 mph26%30.21 "Hg15 mi
3:00 PM52 °FOvercast.10 mph24%30.21 "Hg15 mi
2:00 PM52 °FOvercast.7 mph24%30.23 "Hg15 mi
1:00 PM48 °FOvercast.9 mph23%30.24 "Hg15 mi
12:00 PM48 °FPartly sunny.8 mph23%30.25 "Hg15 mi
11:00 AM46 °FPartly sunny.9 mph25%30.24 "Hg15 mi
10:00 AM43 °FPartly sunny.8 mph34%30.25 "Hg15 mi
9:00 AM41 °FPartly sunny.6 mph33%30.26 "Hg15 mi
8:00 AM36 °FPartly sunny.8 mph41%30.25 "Hg15 mi
7:00 AM34 °FPartly sunny.9 mph44%30.24 "Hg15 mi
6:00 AM32 °FPartly sunny.8 mph44%30.22 "Hg15 mi
5:00 AM34 °FPassing clouds.8 mph38%30.20 "Hg15 mi
4:00 AM34 °FPassing clouds.7 mph41%30.18 "Hg15 mi
3:00 AM36 °FPassing clouds.7 mph38%30.18 "Hg15 mi
2:00 AM37 °FPassing clouds.9 mph35%30.18 "Hg15 mi
12:00 AM39 °FPassing clouds.7 mph30%30.19 "Hg15 mi
11:00 PM
Wed, Apr 27
41 °FPassing clouds.8 mph31%30.18 "Hg15 mi
Weather by CustomWeather, © 2016

See weather overviewHow to use our weather pages